To NAV CANADA Home Page Login to a new session Search on AWWS site Feedback and Comments Disclaimer Vers la page française équivalente Tips FAQ What's new on the site To the Forecasts and Observations / NOTAM section To "File a Flight Plan" website Publications and other links Update of the User's profile FIC Telephone Numbers My Weather Data Folder Route Weather Data Regional Weather Data Local Weather Data To the Forecasts and Observations / NOTAM section
Request Generated 03/28/2017 at 02:19:14 UTC . Weather information available at that time is displayed.

METAR/TAF

OLD CROW/YT    

LWIS CYOC 280200Z AUTO 04011G17KT M13/M21 A2997=
METAR CYOC 280100Z 05011G17KT 35SM FEW032 FEW080 M13/M21 A2999 RMK
CF1AC1 CF TR AC TR CLIMAT -12.7/-30.2/TR CM TR MWE LAST STFD
OBS/NXT 281300Z SLP191=
METAR CYOC 280000Z 05013KT 35SM FEW030 FEW075 M13/M21 A3000 RMK
CF1AC1 CF TR AC TR SLP193=

*** REMARK        : Forecast period has ended; this was the last TAF issued
*** REMARQUE : La période de prévision est échue; ceci était le dernier TAF qui a été émis
TAF CYOC 271738Z 2718/2801 VRB03KT P6SM FEW030
RMK NXT FCST WILL BE ISSUED AT 281445Z=
Your time UTC time
Weather data provided by Environment Canada and NAV CANADA